Saranac Lake, NY

7:05 AM EDT on July 28, 2017 (GMT -0400)
Adirondack Regional

Weather History for KSLK - March, 2012

Change the Weather History Date:

Thursday, March 22, 2012

  Actual Average Record
Temperature  
Mean Temperature 54 °F 27 °F  
Max Temperature 75 °F 39 °F 75 °F (2012)
Min Temperature 33 °F 15 °F -10 °F (1992)
Degree Days  
Heating Degree Days 11 38  
Month to date heating degree days 617 935  
Since 1 July heating degree days 6365 7640  
Cooling Degree Days 0 0  
Month to date cooling degree days 0 0  
Year to date cooling degree days 0 0  
Growing Degree Days 4 (Base 50)    
Moisture  
Dew Point 46 °F    
Average Humidity 68    
Maximum Humidity 93    
Minimum Humidity 43    
Precipitation  
Precipitation T in 0.08 in 0.82 in (1999)
Month to date precipitation 1.31 1.49  
Year to date precipitation 5.00 5.23  
Sea Level Pressure  
Sea Level Pressure 30.16 in    
Wind  
Wind Speed 3 mph (SW)    
Max Wind Speed 12 mph    
Max Gust Speed 17 mph    
Visibility 10 miles    
Events Rain    
T = Trace of Precipitation, MM = Missing Value Source: NWS Daily Summary

Daily Weather History Graph

Daily Weather History Graph

Search for Another Location

Airport or City:

Trip Planner

Search our weather history database for the weather conditions in past years. The results will help you decide how hot, cold, wet, or windy it might be!

Date:

Astronomy

Mar. 22, 2012 Rise Set
Actual Time 6:55 AM EDT 7:12 PM EDT
Civil Twilight 6:26 AM EDT 7:41 PM EDT
Nautical Twilight 5:52 AM EDT 8:15 PM EDT
Astronomical Twilight 5:17 AM EDT 8:50 PM EDT
Moon 6:31 AM EDT (3/22) 7:37 PM EDT (3/22)
Length of Visible Light 13h 14m
Length of Day
12h 16m
New Moon, 0% of the Moon is Illuminated
Mar 22
New Moon
Mar 30
First Quarter
Apr 6
Full
Apr 13
Last Quarter
Apr 21
New

Hourly Weather History & Observations

Time (EDT) Temp. Windchill Dew Point Humidity Pressure Visibility Wind Dir Wind Speed Gust Speed Precip Events Conditions
12:51 AM 41.0 °F - 39.0 °F 93% 30.21 in 10.0 mi Calm Calm - N/A   Clear
1:51 AM 39.2 °F - 37.4 °F 93% 30.20 in 10.0 mi Calm Calm - N/A   Clear
2:51 AM 37.9 °F - 36.0 °F 93% 30.20 in 10.0 mi Calm Calm - N/A   Clear
3:51 AM 37.0 °F 34.5 °F 35.1 °F 93% 30.19 in 10.0 mi SSW 3.5 mph - N/A   Clear
4:51 AM 36.0 °F 33.3 °F 33.1 °F 89% 30.19 in 10.0 mi SSW 3.5 mph - N/A   Clear
5:51 AM 35.1 °F - 34.0 °F 96% 30.19 in 10.0 mi Calm Calm - N/A   Clear
6:51 AM 34.0 °F - 30.9 °F 89% 30.20 in 9.0 mi Calm Calm - N/A   Clear
7:51 AM 39.0 °F - 37.0 °F 93% 30.23 in 10.0 mi Calm Calm - N/A   Clear
8:51 AM 53.1 °F - 46.9 °F 80% 30.21 in 10.0 mi South 5.8 mph - N/A   Clear
9:51 AM 60.1 °F - 50.0 °F 69% 30.18 in 10.0 mi Variable 5.8 mph - N/A   Clear
10:51 AM 64.9 °F - 50.0 °F 58% 30.18 in 10.0 mi SSW 9.2 mph - N/A   Clear
11:51 AM 70.0 °F - 50.0 °F 49% 30.17 in 10.0 mi WSW 8.1 mph - N/A   Clear
12:51 PM 73.9 °F - 50.0 °F 43% 30.14 in 10.0 mi Variable 4.6 mph - N/A   Clear
1:51 PM 75.0 °F - 51.1 °F 43% 30.12 in 10.0 mi WSW 8.1 mph - N/A   Scattered Clouds
2:51 PM 73.0 °F - 52.0 °F 48% 30.11 in 10.0 mi Variable 5.8 mph - N/A   Overcast
3:51 PM 72.0 °F - 52.0 °F 49% 30.11 in 10.0 mi NNW 8.1 mph - N/A   Mostly Cloudy
4:51 PM 70.0 °F - 53.1 °F 55% 30.12 in 10.0 mi Variable 5.8 mph - N/A   Overcast
5:51 PM 69.1 °F - 53.1 °F 57% 30.12 in 10.0 mi Variable 3.5 mph - N/A   Mostly Cloudy
6:51 PM 66.0 °F - 53.1 °F 63% 30.14 in 10.0 mi Calm Calm - N/A   Overcast
7:51 PM 61.0 °F - 53.1 °F 75% 30.12 in 9.0 mi Calm Calm - 0.00 in Rain Light Rain
8:51 PM 61.0 °F - 52.0 °F 72% 30.14 in 10.0 mi Variable 3.5 mph - 0.00 in   Scattered Clouds
9:51 PM 59.0 °F - 52.0 °F 78% 30.13 in 10.0 mi Calm Calm - N/A   Partly Cloudy
10:51 PM 55.9 °F - 51.1 °F 84% 30.13 in 10.0 mi Variable 3.5 mph - N/A   Mostly Cloudy
11:51 PM 53.1 °F - 48.9 °F 86% 30.14 in 10.0 mi Calm Calm - N/A   Overcast